Theta_e
293 293 293 293 293 293 292 291 291 291 290 290 290 289 289 289 289 288 288 288 288 287 287 287 286 286 286 285 285 285 285 285 285 285 284 284 284 285 282 284 284 284
292 292 292 293 293 292 292 291 290 290 290 290 290 290 290 290 289 289 288 288 287 287 287 286 286 286 286 285 285 284 284 284 284 284 283 283 283 283 283 284 284 284
292 292 292 291 292 291 291 290 290 290 290 290 290 290 290 289 289 288 288 287 287 287 287 286 286 286 285 285 284 284 284 283 283 283 283 283 283 282 283 283 283 283
291 291 291 291 292 291 291 290 289 289 289 289 288 289 288 288 288 287 287 287 287 286 286 286 285 285 285 284 284 283 284 283 284 283 282 283 282 282 282 282 282 282
290 290 290 291 291 290 290 289 289 288 288 289 288 288 287 287 287 287 286 286 286 286 286 285 285 284 284 283 283 283 283 283 282 282 282 281 282 281 282 281 281 280
290 290 290 290 290 290 289 288 289 288 288 287 288 288 287 287 287 286 286 286 286 286 285 285 284 284 283 283 282 282 282 282 282 281 281 281 281 281 281 281 280 280
289 289 289 289 289 289 289 288 288 288 288 288 287 287 287 286 286 286 286 286 286 285 285 284 284 283 283 283 282 282 282 282 281 281 281 281 281 280 280 280 280 280
288 288 288 288 288 288 288 288 288 288 288 287 287 287 286 286 286 286 286 286 285 285 285 284 284 283 283 282 282 281 281 281 281 280 280 280 280 280 280 280 280 280
287 287 287 287 287 288 288 288 288 288 287 287 286 286 286 286 286 286 285 285 285 285 285 284 284 283 283 282 282 282 281 281 281 280 280 280 280 280 279 279 279 279
287 287 287 287 286 287 287 288 288 288 287 287 287 286 285 285 286 286 285 285 284 284 284 284 284 283 283 282 282 282 282 281 281 280 280 280 280 280 279 279 279 279
287 287 286 286 286 287 287 287 288 288 287 287 286 286 286 285 285 285 285 285 284 284 284 284 284 283 283 282 282 282 282 282 281 281 280 280 280 280 280 279 279 279
286 287 287 286 287 287 287 287 287 287 287 287 286 286 286 285 285 285 285 284 284 284 284 284 284 283 283 282 282 282 282 282 282 281 280 280 280 280 280 280 279 279
286 286 286 287 287 287 287 287 287 287 287 287 286 286 286 285 285 284 285 285 285 285 284 284 284 284 283 283 282 282 282 281 281 281 280 280 280 280 280 280 280 280
286 286 286 286 287 287 287 287 287 286 286 287 287 286 285 285 285 284 284 285 285 284 284 284 284 283 283 283 282 282 282 281 281 281 280 280 280 280 280 280 280 280
285 286 286 286 286 286 286 286 286 286 286 286 286 286 286 285 285 285 284 284 284 284 284 284 283 283 283 283 282 282 281 281 281 281 280 280 280 280 280 279 279 279
285 285 285 285 285 285 286 286 286 286 286 285 285 286 286 285 285 285 284 284 284 284 284 283 283 284 284 285 285 282 282 281 281 281 281 280 279 279 279 279 279 279
284 284 284 285 285 285 285 285 285 285 285 285 285 285 285 285 284 284 284 284 284 283 283 283 283 284 285 286 286 286 283 281 281 281 281 280 280 279 278 278 278 278
283 283 283 284 284 284 284 284 284 284 284 284 284 284 285 284 284 284 284 284 283 283 283 283 283 285 286 287 287 287 285 282 281 281 280 280 280 279 279 278 277 277
283 282 282 282 283 283 283 283 283 283 283 284 284 284 284 283 283 283 283 284 283 283 283 283 283 286 287 287 287 287 287 284 281 281 280 280 280 279 279 278 277 277
282 281 281 281 281 282 282 281 281 281 282 282 283 283 283 283 283 283 283 283 283 283 283 283 283 285 286 287 287 287 287 286 282 281 280 280 279 279 279 278 277 276
282 281 280 281 281 281 280 281 281 281 281 282 282 282 282 282 282 282 282 282 282 282 282 282 282 285 286 286 287 287 288 287 283 281 280 280 279 279 278 278 277 277
282 281 280 280 280 280 280 281 281 281 280 281 281 281 281 281 281 281 281 281 282 281 281 281 282 284 285 286 287 287 288 286 284 281 280 279 279 278 278 278 277 276
282 281 280 280 280 280 280 280 280 280 281 281 280 280 280 280 280 280 281 280 280 280 280 280 281 283 284 285 286 287 287 285 284 281 280 278 278 278 277 277 277 277
282 281 281 280 280 279 280 280 280 280 280 280 279 279 279 279 280 279 279 279 279 279 280 279 280 281 283 284 285 286 286 284 283 281 279 278 277 277 277 277 277 278
281 281 281 281 280 280 280 279 280 280 280 278 278 278 278 279 278 278 278 278 278 278 280 279 279 280 282 283 285 286 286 284 283 281 279 278 277 276 276 276 276 278
281 281 281 280 280 280 280 280 280 279 279 279 278 278 277 277 276 276 276 277 277 276 276 277 278 278 279 282 284 285 286 285 283 280 278 277 276 276 275 275 275 276
Wind_Speed
9 7 8 8 8 6 7 7 6 8 8 7 8 8 9 7 10 12 12 10 12 12 12 12 11 11 12 10 11 10 10 11 9 9 11 10 10 13 10 11 10 9
9 9 8 7 6 6 6 7 8 8 8 8 7 6 7 8 10 9 10 11 12 12 13 11 12 12 11 11 12 11 10 10 12 8 10 13 10 10 11 13 10 8
8 8 8 9 9 8 8 7 8 9 8 9 8 7 6 7 8 8 8 10 9 9 10 11 10 10 10 10 9 10 10 11 12 10 10 12 9 10 9 9 8 11
8 8 8 9 8 8 6 7 7 8 8 8 11 10 9 8 9 8 9 11 9 9 9 8 10 8 8 9 9 8 9 9 8 8 11 8 10 9 10 8 7 7
7 8 7 7 7 7 7 8 10 10 10 11 8 9 10 10 11 10 10 10 10 9 8 9 8 9 8 8 8 8 8 8 7 8 9 10 9 9 8 9 10 10
7 7 7 7 8 7 8 10 10 10 11 10 12 9 9 10 11 10 11 12 11 12 11 10 10 9 9 9 8 9 8 8 8 9 10 11 9 8 7 9 10 11
8 7 8 7 8 8 10 10 9 10 10 10 7 10 10 11 12 11 11 11 10 13 11 11 12 11 10 9 10 11 10 10 9 11 12 10 9 10 9 10 11 11
8 7 7 7 8 9 10 10 10 10 9 7 10 9 10 12 12 12 12 11 11 11 11 11 9 10 11 11 12 12 11 8 10 12 13 11 10 11 11 9 10 12
8 8 7 7 8 9 10 11 10 10 8 10 10 8 9 10 11 11 12 12 11 10 11 11 12 12 11 12 12 14 14 12 11 13 14 13 13 14 12 10 10 11
10 8 8 8 9 9 11 11 10 9 8 9 9 8 9 10 10 11 11 11 11 11 11 12 12 12 11 12 13 13 14 15 14 13 13 13 13 12 13 13 13 11
11 10 9 9 9 9 10 11 10 9 8 9 8 9 10 9 10 10 11 12 13 12 12 12 12 11 12 12 11 12 12 11 12 13 14 15 14 13 13 14 14 15
12 11 10 10 10 10 11 10 10 8 8 8 8 10 10 10 11 10 11 14 14 14 13 13 12 11 13 13 12 11 11 11 11 11 12 13 13 12 13 14 15 15
13 13 12 11 10 11 10 10 9 9 8 9 8 11 11 10 10 12 12 12 14 13 14 13 12 12 12 12 11 11 11 11 11 11 12 11 11 11 11 12 13 13
11 11 11 11 11 10 10 10 10 9 9 8 8 9 10 11 12 12 12 11 12 12 13 12 13 14 14 11 11 11 11 12 11 12 11 11 11 11 11 11 12 12
11 10 10 10 10 10 10 10 9 9 9 8 8 9 8 10 10 11 11 12 12 12 12 12 13 14 13 11 10 12 12 14 16 16 12 11 11 11 10 11 11 11
12 11 11 11 12 12 11 11 10 9 8 8 8 8 8 8 9 10 11 12 11 12 11 11 12 11 14 19 15 14 15 14 14 15 16 14 14 11 10 10 11 10
9 10 10 11 11 11 11 12 12 10 8 6 8 6 8 8 9 10 10 10 12 12 13 12 12 11 16 18 22 21 15 15 15 15 15 15 14 13 11 11 10 10
7 8 9 9 9 10 11 11 11 11 10 9 7 7 7 5 8 9 9 9 9 11 12 12 11 13 16 19 21 23 20 15 14 13 13 12 12 11 9 9 10 9
7 7 6 6 7 8 8 9 10 11 11 10 10 8 6 5 8 8 9 9 10 11 12 12 11 10 16 19 21 23 24 19 12 14 12 13 12 12 12 9 9 9
7 7 8 8 7 8 8 8 8 9 9 9 9 8 7 6 6 7 8 8 9 11 11 11 12 11 16 19 20 23 24 21 14 14 14 15 13 11 9 10 11 11
7 6 7 9 10 9 8 8 8 8 9 8 7 8 9 8 7 7 7 7 8 8 10 10 10 10 15 19 20 22 24 21 14 14 12 12 10 9 10 10 11 10
8 8 7 7 7 7 8 8 8 8 9 9 8 7 6 6 7 6 7 7 7 7 8 10 8 10 15 18 20 21 23 15 13 13 13 12 11 9 9 8 9 10
8 8 9 9 9 9 9 8 8 8 7 5 6 8 8 8 8 7 7 6 7 7 8 9 9 10 15 17 20 22 18 12 12 11 12 12 13 11 9 10 9 11
9 8 8 7 6 8 9 9 9 7 7 5 6 7 7 8 7 7 7 7 8 8 8 9 9 8 13 16 20 22 18 13 11 11 12 12 11 10 7 8 9 17
9 9 9 10 10 9 7 7 7 8 8 6 7 6 7 6 6 6 7 7 7 9 8 9 9 8 13 16 20 22 18 12 11 10 12 11 9 6 7 7 8 13
8 9 10 10 11 11 10 9 8 7 7 7 7 6 7 5 5 5 8 8 7 7 8 9 9 8 9 17 19 22 24 14 10 10 12 11 10 8 7 8 8 9
Wind_Direction
221 218 225 225 227 221 209 202 202 208 207 206 209 204 205 200 189 193 196 189 192 192 192 191 188 187 191 184 187 185 191 195 193 189 191 188 199 182 186 189 187 189
228 221 219 222 228 214 206 190 201 206 212 212 218 209 213 200 203 194 197 199 198 201 196 193 192 193 187 186 183 186 188 189 196 171 189 190 196 187 196 192 186 179
236 230 228 225 224 220 212 202 201 207 207 207 207 208 206 202 200 203 203 206 205 204 201 200 197 197 195 192 187 194 192 188 195 179 185 192 183 192 194 182 189 185
243 236 233 232 227 222 207 204 208 210 212 207 204 198 189 187 192 192 202 205 208 209 209 203 205 200 198 195 190 203 202 202 197 169 189 186 193 189 188 181 182 183
243 241 236 237 231 220 209 211 212 210 209 213 205 196 191 182 181 187 188 194 200 205 202 206 202 203 195 196 193 202 200 203 187 185 191 193 189 185 183 175 182 185
255 240 236 230 226 222 223 222 220 215 213 210 209 194 197 191 196 194 192 191 191 192 194 194 196 195 191 193 190 202 192 196 189 184 196 198 191 190 178 186 181 186
261 250 241 229 227 225 230 230 228 222 221 218 195 203 191 196 197 194 195 199 196 203 198 190 187 187 187 188 194 197 197 195 181 189 195 201 183 190 191 188 191 186
269 261 250 240 234 233 232 233 232 227 222 210 213 210 196 202 201 198 197 195 198 200 199 199 200 199 186 187 193 194 198 187 192 187 196 195 188 194 192 193 187 186
286 270 258 249 241 239 240 238 237 233 216 217 218 211 204 206 205 203 202 200 201 199 197 198 196 194 193 195 197 193 194 194 193 190 194 191 192 196 189 185 187 194
307 290 278 263 252 248 247 245 240 236 218 220 221 209 210 211 207 204 202 201 205 203 201 200 197 198 197 201 202 198 197 196 192 193 196 197 194 185 183 186 194 187
329 317 300 283 268 263 257 253 248 242 226 221 214 218 216 210 212 204 206 204 207 205 204 204 203 197 200 204 206 207 209 206 199 194 195 198 195 191 187 187 190 195
352 339 324 304 290 282 270 261 254 245 237 227 215 224 219 215 212 207 209 211 212 211 209 209 205 201 204 204 202 203 207 209 208 205 202 199 198 195 190 189 191 194
355 350 339 328 312 297 288 279 265 251 238 233 218 222 223 219 216 216 216 217 216 212 213 209 206 207 207 206 202 201 204 207 209 207 205 204 206 200 195 195 195 191
352 346 345 336 328 315 299 288 279 269 252 243 229 223 222 222 219 219 220 217 220 216 216 211 212 213 212 207 202 199 200 206 208 211 208 206 207 203 199 197 197 194
346 347 344 341 334 329 323 310 294 280 272 259 242 235 227 225 224 220 221 222 222 219 217 212 215 216 212 204 196 201 204 208 211 212 209 209 206 203 200 197 195 197
342 343 345 343 344 340 332 321 315 306 292 275 261 249 240 229 225 222 221 222 221 221 219 217 220 219 215 208 201 204 205 209 210 213 212 212 211 206 201 196 193 190
341 341 339 342 339 334 332 333 328 323 312 295 276 260 250 240 227 228 225 223 223 221 220 222 224 223 214 206 207 204 202 208 209 211 211 212 213 209 206 195 191 190
332 331 334 332 336 335 334 331 329 329 325 316 304 286 266 248 242 237 234 228 229 229 230 228 228 224 212 210 208 207 203 207 210 211 209 211 209 207 202 190 191 185
321 325 320 324 328 329 326 329 332 332 330 327 318 308 300 278 258 250 244 236 232 235 236 233 236 215 213 212 210 209 207 203 215 211 211 213 208 208 204 192 184 182
321 327 327 324 324 328 332 332 334 329 322 318 314 311 299 283 274 262 258 252 244 243 245 244 239 230 219 217 213 211 209 204 215 212 215 215 211 206 198 192 185 183
322 321 321 323 325 328 331 332 330 326 323 318 318 312 309 299 285 276 260 252 254 248 252 250 244 230 221 220 216 212 211 208 213 216 218 217 212 207 202 195 189 187
325 322 317 313 311 314 316 320 324 323 319 316 313 303 292 289 283 273 268 260 252 252 253 256 251 232 227 222 219 216 212 211 214 215 218 216 212 202 200 193 188 184
317 312 314 316 318 318 317 316 316 312 306 300 298 296 299 296 293 285 282 274 263 252 249 253 253 234 230 223 220 217 212 215 215 215 219 217 215 207 196 195 188 189
309 305 299 295 292 298 305 309 308 298 288 287 276 286 286 283 285 291 285 280 270 262 248 252 253 239 234 231 223 218 212 212 213 214 217 216 216 207 197 197 193 192
302 301 302 302 301 296 286 281 279 283 286 283 272 263 262 268 270 270 274 269 266 261 262 254 254 242 233 233 229 223 217 215 214 212 215 216 207 195 196 192 197 199
289 289 292 297 297 299 300 295 292 291 285 285 283 276 271 264 253 250 258 262 256 259 257 254 256 246 228 232 231 228 222 216 212 210 217 212 204 201 192 202 195 193